Regional Weather Roundup
Issued by NWS

Home | Current Version | Previous Version | Text Only | Print | Product List | Glossary Off
Versions: 1 2 3 4 5 6 7 8 9 10 11 12 13 14 15 16 17 18 19 20 21 22 23 24 25 26 27 28 29 30 31 32 33 34 35 36 37 38 39 40 41 42 43 44 45 46 47 48 49 50

000
ASUS43 KLOT 160203
RWRIL

ILLINOIS REGIONAL WEATHER ROUNDUP
NATIONAL WEATHER SERVICE CHICAGO/ROMEOVILLE IL
900 PM CDT TUE AUG 15 2017

NOTE: "FAIR" INDICATES FEW OR NO CLOUDS BELOW 12,000 FEET WITH NO
SIGNIFICANT WEATHER AND/OR OBSTRUCTIONS TO VISIBILITY.

* THESE STATIONS ARE NOT UNDER NWS QUALITY CONTROL. THEY ALSO MAY NOT
  REPORT WEATHER SUCH AS PRECIPITATION OR FOG.

ILZ001-002-007-009-015-016-024-160300-
NORTHWEST ILLINOIS

CITY           SKY/WX    TMP DP  RH WIND       PRES   REMARKS
MOLINE         MOCLDY    76  67  73 NE12      29.91R
STERLING*      PTCLDY    70  67  90 NE3       29.94R
SAVANNA*       MOCLDY    68  65  91 NE3       29.94R
$$

ILZ003-004-008-010-011-017-018-160300-
NORTH CENTRAL ILLINOIS

CITY           SKY/WX    TMP DP  RH WIND       PRES   REMARKS
ROCKFORD       MOCLDY    72  62  71 E10       29.96R
FREEPORT*      PTCLDY    65  64  95 CALM      29.97R
ROCHELLE*      CLOUDY    69  64  83 E7        29.95R
PERU*          CLOUDY    72  65  79 NE6       29.93R
$$

ILZ005-006-012>014-019>023-160300-
NORTHEAST ILLINOIS

CITY           SKY/WX    TMP DP  RH WIND       PRES   REMARKS
CHICAGO-OHARE  MOCLDY    70  62  76 E9        29.96R
CHICAGO-MIDWAY CLOUDY    72  64  76 NE10      29.96R
AURORA         CLOUDY    69  63  81 NE8       29.96R
LANSING*       PTCLDY    70  63  79 NE5       29.96S
JOLIET*        PTCLDY    72  66  80 NE10      29.95R
WAUKEGAN       CLEAR     65  63  93 NE3       29.97R
DUPAGE AIRPORT CLOUDY    68  62  81 NE6       29.96R
KANKAKEE*      CLEAR     70  66  88 CALM      29.95R
WHEELING       CLEAR     69  64  84 NE6       29.98R
MORRIS*        CLOUDY    71  65  81 E7        29.94R
NORTHERLY ISL    N/A     70  63  78 NE12        N/A
$$

LMZ740>746-160300-
SOUTHERN LAKE MICHIGAN

STATION/POSITION SKY/WX   TEMP    WIND        PRES    VSBY  WAVE
                          AIR SEA DIR/SP/G                  HT/PER
                          (F)     (DEG/KT/KT) (MB)    (MI)  (FT/S)
SOUTHERN BUOY              70 71   20/ 12/ 14 1014.1          2/ 4
WILMETTE HARBOR            71 72   30/ 10/ 14   N/A           3/ 5
HARRISON CRIB              71      50/ 12/ 13   N/A
CALUMET HARBOR             71      30/  8/ 10 1014.1R
BURNS HARBOR               72      50/ 10/ 12 1014.9R
MICHIGAN CITY              71      40/ 11/ 13   N/A
MICHIGAN CITY 6N           72 74   60/ 10/ 12   N/A           3/ 4
ST. JOSEPH                 72 74   60/ 12/ 14 1014.5R         3/ 4
$$

ILZ025>027-034>036-040-047-049-050-058-095>099-160300-
WEST-CENTRAL ILLINOIS

CITY           SKY/WX    TMP DP  RH WIND       PRES   REMARKS
QUINCY         CLEAR     79  70  74 S7        29.87R HX  82
GALESBURG*     PTCLDY    74  67  79 NE7       29.93R
MACOMB*        CLEAR     73  70  93 CALM      29.92R
JACKSONVILLE*  CLEAR     75  70  83 SE5       29.89R
PITTSFIELD*    CLEAR     76  72  86 SE3       29.90R
$$

ILZ028>032-037-038-041>044-048-051>054-059>061-160300-
CENTRAL ILLINOIS

CITY           SKY/WX    TMP DP  RH WIND       PRES   REMARKS
PONTIAC        CLEAR     71  70  98 NE7       29.93R
BLOOMINGTON    MOCLDY    73  70  90 E7        29.94R
DECATUR        PTCLDY    74  70  87 SE3       29.92R
PEORIA         CLOUDY    79  69  71 E7        29.90R HX  81
LACON*         CLOUDY    73  69  88 E6        29.91R
LINCOLN*       CLEAR     74  73  93 CALM      29.92R
SPRINGFIELD    CLEAR     78  71  79 SE5       29.90R HX  80
TAYLORVILLE    CLEAR     74  72  93 CALM      29.92R
$$

ILZ033-039-045-046-055>057-062-063-160300-
EAST-CENTRAL ILLINOIS

CITY           SKY/WX    TMP DP  RH WIND       PRES   REMARKS
CHAMPAIGN      CLOUDY    74  68  81 E5        29.93R
RANTOUL*       CLEAR     77  72  83 E5        29.93R
MATTOON        MOCLDY    77  72  84 CALM      29.92R
PARIS*         CLOUDY    71  70  96 SE3       29.93R
$$

ILZ079-100>102-160300-
SOUTHWEST ILLINOIS

CITY           SKY/WX    TMP DP  RH WIND       PRES   REMARKS
ALTON          CLEAR     73  72  94 E6        29.91R
BELLEVILLE     MOCLDY    79  71  77 S6        29.92R HX  82
CAHOKIA*       PTCLDY    80  70  71 S5        29.90R HX  83
SPARTA*        CLEAR     77  71  82 S5        29.93R
$$

ILZ064>066-069>071-074>076-080>082-084>086-088>090-092>094-160300-
SOUTH-CENTRAL ILLINOIS

CITY           SKY/WX    TMP DP  RH WIND       PRES   REMARKS
CARBONDALE     CLEAR     74  72  93 S3        29.92R
CAIRO*         CLEAR     76  75  94 S3        29.94R
EFFINGHAM*     PTCLDY    76  71  86 CALM      29.93R
MARION         CLEAR     75  75 100 CALM      29.94R
MT. VERNON     CLEAR     77  71  82 CALM      29.93R
CENTRALIA*     CLEAR     75  71  88 S5        29.91R
SALEM*         CLEAR     79  70  74 CALM      29.92R HX  82
METROPOLIS*    PTCLDY    76  73  89 CALM      29.94R
$$

ILZ067-068-072-073-078-083-087-091-160300-
SOUTHEAST ILLINOIS

CITY           SKY/WX    TMP DP  RH WIND       PRES   REMARKS
LAWRENCEVILLE  CLEAR     76  72  87 CALM      29.93R
FLORA*         PTCLDY    76  71  87 SE6       29.92R
FAIRFIELD*     PTCLDY    76  71  86 CALM      29.91R
HARRISBURG*    CLEAR     75  73  92 CALM      29.93R
ROBINSON*      PTCLDY    69  68  96 CALM      29.93R
CARMI*         PTCLDY    72  72  98 S3        29.93R
$$

ABBREVIATIONS USED IN REMARKS
   TC - TEMPERATURE IN CELSIUS
  WCI - WIND CHILL INDEX
   HX - HEAT INDEX
  VSB - VISIBILITY
$$





USA.gov is the U.S. government's official web portal to all federal, state and local government web resources and services.